TimeCST,TemperatureF,Dew PointF,Humidity,Sea Level PressureIn,VisibilityMPH,Wind Direction,Wind SpeedMPH,Gust SpeedMPH,PrecipitationIn,Events,Conditions,WindDirDegrees,DateUTC
12:53 AM,41.0,36.0,82,30.15,10.0,NNW,5.8,-,N/A,,Clear,330,2012-11-04 05:53:00
1:53 AM,37.9,35.1,89,30.17,8.0,Calm,Calm,-,N/A,,Clear,0,2012-11-04 06:53:00
1:53 AM,37.9,35.1,89,30.17,6.0,North,8.1,-,N/A,,Clear,350,2012-11-04 07:53:00
2:24 AM,39.2,37.4,93,30.17,6.0,North,6.9,-,N/A,,Mostly Cloudy,10,2012-11-04 08:24:00
2:53 AM,41.0,37.9,89,30.17,7.0,North,9.2,-,N/A,,Overcast,10,2012-11-04 08:53:00
3:53 AM,39.9,37.0,89,30.19,6.0,NNE,9.2,-,N/A,,Overcast,30,2012-11-04 09:53:00
4:53 AM,39.9,37.0,89,30.20,6.0,NNE,8.1,-,N/A,,Overcast,30,2012-11-04 10:53:00
5:53 AM,39.9,36.0,86,30.21,6.0,North,6.9,-,N/A,,Overcast,360,2012-11-04 11:53:00
6:53 AM,39.9,36.0,86,30.23,5.0,North,8.1,-,N/A,,Overcast,350,2012-11-04 12:53:00
7:53 AM,39.9,36.0,86,30.24,6.0,North,8.1,-,N/A,,Overcast,360,2012-11-04 13:53:00
8:53 AM,42.1,36.0,79,30.24,5.0,NNE,3.5,-,N/A,,Haze,30,2012-11-04 14:53:00
9:16 AM,42.8,35.6,76,30.23,6.0,Variable,4.6,-,N/A,,Haze,0,2012-11-04 15:16:00
9:53 AM,44.1,36.0,73,30.24,6.0,NNE,6.9,-,N/A,,Haze,30,2012-11-04 15:53:00
10:53 AM,48.0,35.1,61,30.25,10.0,NE,6.9,-,N/A,,Clear,40,2012-11-04 16:53:00
11:53 AM,50.0,35.1,57,30.22,10.0,NE,6.9,-,N/A,,Clear,50,2012-11-04 17:53:00
12:53 PM,52.0,34.0,50,30.19,10.0,Variable,4.6,-,N/A,,Clear,0,2012-11-04 18:53:00
1:53 PM,55.0,33.1,43,30.17,10.0,NE,4.6,-,N/A,,Clear,40,2012-11-04 19:53:00
3:53 PM,54.0,34.0,47,30.17,10.0,North,3.5,-,N/A,,Clear,10,2012-11-04 21:53:00
4:53 PM,50.0,33.1,52,30.16,10.0,North,5.8,-,N/A,,Partly Cloudy,360,2012-11-04 22:53:00
5:53 PM,46.9,33.1,59,30.16,10.0,Calm,Calm,-,N/A,,Clear,0,2012-11-04 23:53:00
6:53 PM,42.1,33.1,70,30.17,10.0,Calm,Calm,-,N/A,,Clear,0,2012-11-05 00:53:00
7:53 PM,39.0,34.0,82,30.17,10.0,Calm,Calm,-,N/A,,Clear,0,2012-11-05 01:53:00
8:53 PM,39.0,35.1,86,30.17,10.0,ESE,3.5,-,N/A,,Clear,110,2012-11-05 02:53:00
9:53 PM,39.9,35.1,83,30.17,10.0,ESE,3.5,-,N/A,,Clear,110,2012-11-05 03:53:00
10:53 PM,37.9,34.0,86,30.17,10.0,Calm,Calm,-,N/A,,Clear,0,2012-11-05 04:53:00